Weather History for Syracuse, NY

Change the Weather History Date:

Wednesday, May 14, 2014

  Actual Average Record
Temperature  
Mean Temperature 73 °F 57 °F  
Max Temperature 85 °F 68 °F 87 °F (1942)
Min Temperature 60 °F 46 °F 30 °F (1939)
Degree Days  
Heating Degree Days 0 9  
Month to date heating degree days 101 146  
Since 1 July heating degree days 6966 6481  
Cooling Degree Days 8 1  
Month to date cooling degree days 21 4  
Year to date cooling degree days 22 8  
Growing Degree Days 22 (Base 50)    
Moisture  
Dew Point 58 °F    
Average Humidity 69    
Maximum Humidity 93    
Minimum Humidity 44    
Precipitation  
Precipitation 0.27 in 0.10 in 1.00 in (1905)
Month to date precipitation 1.99 1.39  
Year to date precipitation 15.66 12.10  
Snow  
Snow 0.00 in 0.00 in 0.00 in (2002)
Month to date snowfall 0.0 0.1  
Since 1 July snowfall 132.0 123.8  
Snow Depth 0.00 in    
Sea Level Pressure  
Sea Level Pressure 30.08 in    
Wind  
Wind Speed 8 mph (SSE)    
Max Wind Speed 20 mph    
Max Gust Speed 25 mph    
Visibility 10 miles    
Events Rain , Thunderstorm    
T = Trace of Precipitation, MM = Missing Value Source: NWS Daily Summary

Daily Weather History Graph

Daily Weather History Graph

Search for Another Location

Airport:

Trip Planner

Search our weather history database for the weather conditions in past years. The results will help you decide how hot, cold, wet, or windy it might be!

Date:

Astronomy

May. 14, 2014 Rise Set
Actual Time 5:41 AM EDT 8:20 PM EDT
Civil Twilight 5:09 AM EDT 8:52 PM EDT
Nautical Twilight 4:28 AM EDT 9:33 PM EDT
Astronomical Twilight 3:42 AM EDT 10:20 PM EDT
Moon 8:22 PM EDT (5/14) 5:40 AM EDT (5/14)
Length of Visible Light 15h 43m
Length of Day
14h 38m
Full, 100% of the Moon is Illuminated
May 14
Full
May 14
Full
May 21
Last Quarter
May 28
New
Jun 5
First Quarter

Hourly Weather History & Observations

Time (EDT) Temp. Heat Index Dew Point Humidity Pressure Visibility Wind Dir Wind Speed Gust Speed Precip Events Conditions
12:54 AM 64.9 °F - 62.1 °F 90% 30.08 in 5.0 mi SE 10.4 mph - 0.26 in Rain Rain
1:54 AM 64.0 °F - 62.1 °F 93% 30.09 in 7.0 mi East 8.1 mph - 0.19 in Rain , Thunderstorm Thunderstorms and Rain
2:17 AM 62.6 °F - 60.8 °F 94% 30.10 in 8.0 mi Calm Calm - 0.05 in Rain Rain
2:54 AM 62.1 °F - 60.1 °F 93% 30.06 in 9.0 mi ESE 9.2 mph - 0.09 in Rain Light Rain
3:54 AM 61.0 °F - 57.9 °F 90% 30.07 in 10.0 mi SSE 9.2 mph - 0.00 in   Mostly Cloudy
4:54 AM 61.0 °F - 51.1 °F 70% 30.09 in 10.0 mi SSE 12.7 mph - N/A   Mostly Cloudy
5:54 AM 60.1 °F - 51.1 °F 72% 30.09 in 10.0 mi SE 11.5 mph - N/A   Mostly Cloudy
6:54 AM 60.1 °F - 51.1 °F 72% 30.11 in 10.0 mi SE 8.1 mph - N/A   Overcast
7:54 AM 62.1 °F - 52.0 °F 70% 30.12 in 10.0 mi SE 10.4 mph - N/A   Mostly Cloudy
8:54 AM 64.0 °F - 54.0 °F 70% 30.14 in 10.0 mi SSE 6.9 mph - N/A   Mostly Cloudy
9:54 AM 66.0 °F - 55.0 °F 68% 30.13 in 10.0 mi South 9.2 mph - N/A   Mostly Cloudy
10:54 AM 70.0 °F - 57.9 °F 65% 30.12 in 10.0 mi Variable 3.5 mph - N/A   Mostly Cloudy
11:54 AM 75.0 °F - 60.1 °F 60% 30.12 in 10.0 mi Calm Calm - N/A   Mostly Cloudy
12:54 PM 79.0 °F - 62.1 °F 56% 30.10 in 10.0 mi Variable 4.6 mph - N/A   Scattered Clouds
1:54 PM 82.0 °F 83.0 °F 62.1 °F 51% 30.09 in 10.0 mi Calm Calm - N/A   Scattered Clouds
2:54 PM 81.0 °F 81.6 °F 60.1 °F 49% 30.07 in 10.0 mi South 4.6 mph - N/A   Scattered Clouds
3:54 PM 82.0 °F 82.7 °F 61.0 °F 49% 30.05 in 10.0 mi South 8.1 mph - N/A   Mostly Cloudy
4:54 PM 84.0 °F 84.0 °F 60.1 °F 44% 30.03 in 10.0 mi SE 5.8 mph - N/A   Mostly Cloudy
5:54 PM 84.9 °F 84.8 °F 60.1 °F 43% 30.01 in 10.0 mi South 10.4 mph - N/A   Mostly Cloudy
6:54 PM 82.9 °F 82.8 °F 59.0 °F 44% 30.01 in 10.0 mi SSE 11.5 mph - N/A   Scattered Clouds
7:54 PM 80.1 °F 80.9 °F 60.1 °F 50% 30.01 in 10.0 mi SSE 9.2 mph - N/A   Mostly Cloudy
8:54 PM 78.1 °F - 60.1 °F 54% 30.02 in 10.0 mi SSE 9.2 mph - N/A   Scattered Clouds
9:54 PM 75.9 °F - 59.0 °F 56% 30.04 in 10.0 mi SSE 11.5 mph - N/A   Scattered Clouds
10:54 PM 73.9 °F - 60.1 °F 62% 30.06 in 10.0 mi South 13.8 mph 25.3 mph N/A   Scattered Clouds
11:54 PM 72.0 °F - 60.1 °F 66% 30.06 in 10.0 mi SSE 9.2 mph 19.6 mph N/A   Mostly Cloudy